Find Starlink 34764

NORAD ID: 65098 Int'l Des: 2025-167 Owner: SPXS Country: US Constellation: starlink operational
LEOCIRCULAR

現在のビュー

3D地球を読み込み中...

About Starlink 34764

Starlink 34764 (NORAD 65098) is a starlink constellation satellite (v2 mini) launched Aug 4, 2025 by SPXS of US. It operates in LEO, CIRCULAR orbit with a mass of 575.00 kg.

次回通過

Passes for default location (London). Set your location on the main map for personalized predictions.

高度履歴

Loading altitude history...

軌道要素

1 65098U 25167W 26265.17064292 .00022310 00000-0 66927-3 0 9992
2 65098 53.1600 189.6461 0001183 89.9411 270.1728 15.34408887 63627
Epoch: Sep 22, 2026 • Age: 27 hours

現在のステータス

高度 466.0 km
遠地点 / 近地点 N/A
速度 7.63 km/s
衛星直下点 -12.41°S, 101.19°W
打ち上げ日 Aug 4, 2025
運用期間 1.1 years
タイプ internet

技術仕様

分類 Payload
質量 575.00 kg
乾燥質量 530.00 kg
長さ 0.30 m
スパン 29.00 m
形状 ? Box + pan
製造者 SPXS
バスタイプ Starlink V2MO
フェーズステータス In Orbit
所有者/国 SPXS/US

Most Searched